Time,TemperatureF,DewpointF,PressureIn,WindDirection,WindDirectionDegrees,WindSpeedMPH,WindSpeedGustMPH,Humidity,HourlyPrecipIn,Conditions,Clouds,dailyrainin,SoftwareType,DateUTC
2013-01-11 00:00:00,54.0,37.0,30.11,West,280,26.0,-999.0,52,-99.99,,,-99.99,,2013-01-11 05:00:00,
2013-01-11 00:22:00,54.0,37.0,30.11,West,280,26.0,-999.0,52,-99.99,,,-99.99,,2013-01-11 05:22:00,
2013-01-11 00:32:00,54.0,37.0,30.11,West,280,26.0,-999.0,52,-99.99,,,-99.99,,2013-01-11 05:32:00,
2013-01-11 00:42:00,54.0,37.0,30.11,West,280,26.0,-999.0,52,-99.99,,,-99.99,,2013-01-11 05:42:00,
2013-01-11 00:52:00,54.0,37.0,30.11,West,280,26.0,-999.0,52,-99.99,,,-99.99,,2013-01-11 05:52:00,
2013-01-11 01:00:00,54.0,39.0,30.11,WNW,290,29.0,-999.0,56,-99.99,,,-99.99,,2013-01-11 06:00:00,
2013-01-11 01:52:00,54.0,39.0,30.11,WNW,290,29.0,-999.0,56,-99.99,,,-99.99,,2013-01-11 06:52:00,
2013-01-11 02:00:00,55.0,41.0,30.11,WNW,300,26.0,-999.0,58,-99.99,,,-99.99,,2013-01-11 07:00:00,
2013-01-11 02:22:00,55.0,41.0,30.11,WNW,300,26.0,-999.0,58,-99.99,,,-99.99,,2013-01-11 07:22:00,
2013-01-11 02:32:00,55.0,41.0,30.11,WNW,300,26.0,-999.0,58,-99.99,,,-99.99,,2013-01-11 07:32:00,
2013-01-11 02:42:00,55.0,41.0,30.11,WNW,300,26.0,-999.0,58,-99.99,,,-99.99,,2013-01-11 07:42:00,
2013-01-11 02:52:00,55.0,41.0,30.11,WNW,300,26.0,-999.0,58,-99.99,,,-99.99,,2013-01-11 07:52:00,
2013-01-11 03:00:00,55.0,45.0,30.14,WNW,290,20.0,-999.0,66,-99.99,,,-99.99,,2013-01-11 08:00:00,
2013-01-11 03:11:00,55.0,45.0,30.14,WNW,290,20.0,-999.0,66,-99.99,,,-99.99,,2013-01-11 08:11:00,
2013-01-11 03:22:00,55.0,45.0,30.14,WNW,290,20.0,-999.0,66,-99.99,,,-99.99,,2013-01-11 08:22:00,
2013-01-11 03:32:00,55.0,45.0,30.14,WNW,290,20.0,-999.0,66,-99.99,,,-99.99,,2013-01-11 08:32:00,
2013-01-11 03:42:00,55.0,45.0,30.14,WNW,290,20.0,-999.0,66,-99.99,,,-99.99,,2013-01-11 08:42:00,
2013-01-11 03:52:00,55.0,45.0,30.14,WNW,290,20.0,-999.0,66,-99.99,,,-99.99,,2013-01-11 08:52:00,
2013-01-11 04:00:00,55.0,45.0,30.17,West,280,15.0,-999.0,66,-99.99,,,-99.99,,2013-01-11 09:00:00,
2013-01-11 04:11:00,55.0,45.0,30.17,West,280,15.0,-999.0,66,-99.99,,,-99.99,,2013-01-11 09:11:00,
2013-01-11 04:22:00,55.0,45.0,30.17,West,280,15.0,-999.0,66,-99.99,,,-99.99,,2013-01-11 09:22:00,
2013-01-11 04:32:00,55.0,45.0,30.17,West,280,15.0,-999.0,66,-99.99,,,-99.99,,2013-01-11 09:32:00,
2013-01-11 04:42:00,55.0,45.0,30.17,West,280,15.0,-999.0,66,-99.99,,,-99.99,,2013-01-11 09:42:00,
2013-01-11 04:52:00,55.0,45.0,30.17,West,280,15.0,-999.0,66,-99.99,,,-99.99,,2013-01-11 09:52:00,
2013-01-11 05:00:00,57.0,43.0,30.16,WNW,300,16.0,-999.0,58,-99.99,,,-99.99,,2013-01-11 10:00:00,
2013-01-11 05:11:00,57.0,43.0,30.16,WNW,300,16.0,-999.0,58,-99.99,,,-99.99,,2013-01-11 10:11:00,
2013-01-11 05:22:00,57.0,43.0,30.16,WNW,300,16.0,-999.0,58,-99.99,,,-99.99,,2013-01-11 10:22:00,
2013-01-11 05:32:00,57.0,43.0,30.16,WNW,300,16.0,-999.0,58,-99.99,,,-99.99,,2013-01-11 10:32:00,
2013-01-11 05:42:00,57.0,43.0,30.16,WNW,300,16.0,-999.0,58,-99.99,,,-99.99,,2013-01-11 10:42:00,
2013-01-11 05:52:00,57.0,43.0,30.16,WNW,300,16.0,-999.0,58,-99.99,,,-99.99,,2013-01-11 10:52:00,
2013-01-11 06:00:00,58.0,45.0,30.16,WNW,300,16.0,-999.0,60,-99.99,,,-99.99,,2013-01-11 11:00:00,
2013-01-11 06:11:00,58.0,45.0,30.16,WNW,300,16.0,-999.0,60,-99.99,,,-99.99,,2013-01-11 11:11:00,
2013-01-11 06:22:00,58.0,45.0,30.16,WNW,300,16.0,-999.0,60,-99.99,,,-99.99,,2013-01-11 11:22:00,
2013-01-11 06:32:00,58.0,45.0,30.16,WNW,300,16.0,-999.0,60,-99.99,,,-99.99,,2013-01-11 11:32:00,
2013-01-11 06:42:00,58.0,45.0,30.16,WNW,300,16.0,-999.0,60,-99.99,,,-99.99,,2013-01-11 11:42:00,
2013-01-11 06:52:00,58.0,45.0,30.16,WNW,300,16.0,-999.0,60,-99.99,,,-99.99,,2013-01-11 11:52:00,
2013-01-11 07:00:00,58.0,45.0,30.19,WSW,240,22.0,-999.0,60,-99.99,,,-99.99,,2013-01-11 12:00:00,
2013-01-11 07:12:00,58.0,45.0,30.19,WSW,240,22.0,-999.0,60,-99.99,,,-99.99,,2013-01-11 12:12:00,
2013-01-11 07:22:00,58.0,45.0,30.19,WSW,240,22.0,-999.0,60,-99.99,,,-99.99,,2013-01-11 12:22:00,
2013-01-11 07:32:00,58.0,45.0,30.19,WSW,240,22.0,-999.0,60,-99.99,,,-99.99,,2013-01-11 12:32:00,
2013-01-11 07:42:00,58.0,45.0,30.19,WSW,240,22.0,-999.0,60,-99.99,,,-99.99,,2013-01-11 12:42:00,
2013-01-11 07:52:00,58.0,45.0,30.19,WSW,240,22.0,-999.0,60,-99.99,,,-99.99,,2013-01-11 12:52:00,
2013-01-11 08:00:00,58.0,45.0,30.21,WNW,300,22.0,-999.0,60,-99.99,,,-99.99,,2013-01-11 13:00:00,
2013-01-11 08:12:00,58.0,45.0,30.21,WNW,300,22.0,-999.0,60,-99.99,,,-99.99,,2013-01-11 13:12:00,
2013-01-11 08:22:00,58.0,45.0,30.21,WNW,300,22.0,-999.0,60,-99.99,,,-99.99,,2013-01-11 13:22:00,
2013-01-11 08:32:00,58.0,45.0,30.21,WNW,300,22.0,-999.0,60,-99.99,,,-99.99,,2013-01-11 13:32:00,
2013-01-11 08:42:00,58.0,45.0,30.21,WNW,300,22.0,-999.0,60,-99.99,,,-99.99,,2013-01-11 13:42:00,
2013-01-11 08:52:00,58.0,45.0,30.21,WNW,300,22.0,-999.0,60,-99.99,,,-99.99,,2013-01-11 13:52:00,
2013-01-11 09:00:00,57.0,43.0,30.19,West,270,2.0,-999.0,58,-99.99,,,-99.99,,2013-01-11 14:00:00,
2013-01-11 09:52:00,57.0,43.0,30.19,West,270,2.0,-999.0,58,-99.99,,,-99.99,,2013-01-11 14:52:00,
2013-01-11 11:00:00,59.0,46.0,30.17,SE,140,7.0,-999.0,62,-99.99,,,-99.99,,2013-01-11 16:00:00,
2013-01-11 11:22:00,59.0,46.0,30.17,SE,140,7.0,-999.0,62,-99.99,,,-99.99,,2013-01-11 16:22:00,
2013-01-11 11:32:00,59.0,46.0,30.17,SE,140,7.0,-999.0,62,-99.99,,,-99.99,,2013-01-11 16:32:00,
2013-01-11 11:42:00,59.0,46.0,30.17,SE,140,7.0,-999.0,62,-99.99,,,-99.99,,2013-01-11 16:42:00,
2013-01-11 11:52:00,59.0,46.0,30.17,SE,140,7.0,-999.0,62,-99.99,,,-99.99,,2013-01-11 16:52:00,
2013-01-11 12:00:00,61.0,48.0,30.17,SE,140,11.0,-999.0,63,-99.99,,,-99.99,,2013-01-11 17:00:00,
2013-01-11 12:22:00,61.0,48.0,30.17,SE,140,11.0,-999.0,63,-99.99,,,-99.99,,2013-01-11 17:22:00,
2013-01-11 12:32:00,61.0,48.0,30.17,SE,140,11.0,-999.0,63,-99.99,,,-99.99,,2013-01-11 17:32:00,
2013-01-11 12:42:00,61.0,48.0,30.17,SE,140,11.0,-999.0,63,-99.99,,,-99.99,,2013-01-11 17:42:00,
2013-01-11 12:52:00,61.0,48.0,30.17,SE,140,11.0,-999.0,63,-99.99,,,-99.99,,2013-01-11 17:52:00,
2013-01-11 13:00:00,57.0,48.0,30.16,ESE,110,14.0,-999.0,71,-99.99,,,-99.99,,2013-01-11 18:00:00,
2013-01-11 13:12:00,57.0,48.0,30.16,ESE,110,14.0,-999.0,71,-99.99,,,-99.99,,2013-01-11 18:12:00,
2013-01-11 13:22:00,57.0,48.0,30.16,ESE,110,14.0,-999.0,71,-99.99,,,-99.99,,2013-01-11 18:22:00,
2013-01-11 13:32:00,57.0,48.0,30.16,ESE,110,14.0,-999.0,71,-99.99,,,-99.99,,2013-01-11 18:32:00,
2013-01-11 13:42:00,57.0,48.0,30.16,ESE,110,14.0,-999.0,71,-99.99,,,-99.99,,2013-01-11 18:42:00,
2013-01-11 13:52:00,57.0,48.0,30.16,ESE,110,14.0,-999.0,71,-99.99,,,-99.99,,2013-01-11 18:52:00,
2013-01-11 14:00:00,59.0,52.0,30.15,SE,130,23.0,-999.0,76,-99.99,,,-99.99,,2013-01-11 19:00:00,
2013-01-11 14:22:00,59.0,52.0,30.15,SE,130,23.0,-999.0,76,-99.99,,,-99.99,,2013-01-11 19:22:00,
2013-01-11 14:32:00,59.0,52.0,30.15,SE,130,23.0,-999.0,76,-99.99,,,-99.99,,2013-01-11 19:32:00,
2013-01-11 14:42:00,59.0,52.0,30.15,SE,130,23.0,-999.0,76,-99.99,,,-99.99,,2013-01-11 19:42:00,
2013-01-11 14:52:00,59.0,52.0,30.15,SE,130,23.0,-999.0,76,-99.99,,,-99.99,,2013-01-11 19:52:00,
2013-01-11 15:00:00,57.0,52.0,30.12,ESE,110,24.0,-999.0,82,-99.99,,,-99.99,,2013-01-11 20:00:00,
2013-01-11 15:22:00,57.0,52.0,30.12,ESE,110,24.0,-999.0,82,-99.99,,,-99.99,,2013-01-11 20:22:00,
2013-01-11 15:32:00,57.0,52.0,30.12,ESE,110,24.0,-999.0,82,-99.99,,,-99.99,,2013-01-11 20:32:00,
2013-01-11 15:42:00,57.0,52.0,30.12,ESE,110,24.0,-999.0,82,-99.99,,,-99.99,,2013-01-11 20:42:00,
2013-01-11 15:52:00,57.0,52.0,30.12,ESE,110,24.0,-999.0,82,-99.99,,,-99.99,,2013-01-11 20:52:00,
2013-01-11 16:00:00,58.0,54.0,30.11,ESE,120,25.0,-999.0,84,-99.99,,,-99.99,,2013-01-11 21:00:00,
2013-01-11 16:12:00,58.0,54.0,30.11,ESE,120,25.0,-999.0,84,-99.99,,,-99.99,,2013-01-11 21:12:00,
2013-01-11 16:22:00,58.0,54.0,30.11,ESE,120,25.0,-999.0,84,-99.99,,,-99.99,,2013-01-11 21:22:00,
2013-01-11 16:32:00,58.0,54.0,30.11,ESE,120,25.0,-999.0,84,-99.99,,,-99.99,,2013-01-11 21:32:00,
2013-01-11 16:42:00,58.0,54.0,30.11,ESE,120,25.0,-999.0,84,-99.99,,,-99.99,,2013-01-11 21:42:00,
2013-01-11 16:52:00,58.0,54.0,30.11,ESE,120,25.0,-999.0,84,-99.99,,,-99.99,,2013-01-11 21:52:00,
2013-01-11 19:00:00,61.0,55.0,30.06,SSE,150,28.0,-999.0,82,-99.99,,,-99.99,,2013-01-12 00:00:00,
2013-01-11 19:12:00,61.0,55.0,30.06,SSE,150,28.0,-999.0,82,-99.99,,,-99.99,,2013-01-12 00:12:00,
2013-01-11 19:22:00,61.0,55.0,30.06,SSE,150,28.0,-999.0,82,-99.99,,,-99.99,,2013-01-12 00:22:00,
2013-01-11 19:32:00,61.0,55.0,30.06,SSE,150,28.0,-999.0,82,-99.99,,,-99.99,,2013-01-12 00:32:00,
2013-01-11 19:42:00,61.0,55.0,30.06,SSE,150,28.0,-999.0,82,-99.99,,,-99.99,,2013-01-12 00:42:00,
2013-01-11 19:52:00,61.0,55.0,30.06,SSE,150,28.0,-999.0,82,-99.99,,,-99.99,,2013-01-12 00:52:00,
2013-01-11 23:00:00,63.0,59.0,29.90,SSW,200,34.0,-999.0,88,-99.99,,,-99.99,,2013-01-12 04:00:00,
2013-01-11 23:42:00,63.0,59.0,29.90,SSW,200,34.0,-999.0,88,-99.99,,,-99.99,,2013-01-12 04:42:00,
2013-01-11 23:52:00,63.0,59.0,29.90,SSW,200,34.0,-999.0,88,-99.99,,,-99.99,,2013-01-12 04:52:00,